This demonstration page uses our WeatherBlox Daily Observations layout. Learn more.

Left ArrowRight Arrow

Hourly Observations for May 2, 2021

Temp ( °F °C ) Dew Point ( °F °C ) Humidity (%) Winds ( mph kmh ) Pressure ( in mb ) Visibility ( mi km ) Precip ( " mm )
12:53 am 00:53 Clear 56 13.3 51 10.6 84 84 Calm 30.00 1016 10 16 0.00 0.00
1:53 am 01:53 Clear 55 12.8 52 11.1 90 90 Calm 29.98 1015 10 16 0.00 0.00
2:53 am 02:53 Clear 54 12.2 51 10.6 90 90 Calm 29.97 1015 10 16 0.00 0.00
3:53 am 03:53 Clear 54 12.2 51 10.6 90 90 Calm 29.98 1015 10 16 0.00 0.00
4:53 am 04:53 Clear 56 13.3 51 10.6 84 84 Calm 29.98 1015 10 16 0.00 0.00
5:53 am 05:53 Clear 56 13.3 52 11.1 87 87 Calm 29.98 1015 10 16 0.00 0.00
6:53 am 06:53 Mostly Sunny 58 14.4 53 11.7 84 84 NE 3 6 29.98 1015 10 16 0.00 0.00
7:53 am 07:53 Mostly Cloudy 58 14.4 55 12.8 90 90 Calm 29.99 1016 10 16 0.00 0.00
8:53 am 08:53 Mostly Sunny 63 17.2 58 14.4 84 84 E 3 6 29.98 1015 10 16 0.00 0.00
9:53 am 09:53 Sunny 68 20 60 15.6 76 76 S 6 9 30.00 1016 10 16 0.00 0.00
10:53 am 10:53 Sunny 72 22.2 60 15.6 66 66 S 7 11 29.98 1015 10 16 0.00 0.00
11:53 am 11:53 Sunny 75 23.9 59 15 58 58 SSE 10 17 29.97 1015 10 16 0.00 0.00
12:53 pm 12:53 Sunny 77 25 58 14.4 52 52 S 9 15 29.96 1014 10 16 0.00 0.00
1:53 pm 13:53 Sunny 80 26.7 56 13.3 44 44 S 12 19 29.93 1013 10 16 0.00 0.00
2:53 pm 14:53 Partly Cloudy 81 27.2 54 12.2 39 39 SSE 12 19 29.90 1013 10 16 0.00 0.00
3:53 pm 15:53 Mostly Sunny 79 26.1 54 12.2 42 42 S 9 15 29.87 1012 10 16 0.00 0.00
4:53 pm 16:53 Partly Cloudy 80 26.7 57 13.9 45 45 S 8 13 29.86 1011 10 16 0.00 0.00
5:53 pm 17:53 Partly Cloudy 79 26.1 56 13.3 45 45 S 7 11 29.86 1011 10 16 0.00 0.00
6:53 pm 18:53 Sunny 78 25.6 57 13.9 48 48 SSE 9 15 29.84 1011 10 16 0.00 0.00
7:53 pm 19:53 Sunny 78 25.6 57 13.9 48 48 SSE 7 11 29.83 1010 10 16 0.00 0.00
8:53 pm 20:53 Mostly Cloudy 77 25 58 14.4 52 52 SSE 7 11 29.85 1011 10 16 0.00 0.00
9:53 pm 21:53 Mostly Cloudy 76 24.4 60 15.6 58 58 SSE 8 13 29.85 1011 10 16 0.00 0.00
10:53 pm 22:53 Clear 75 23.9 60 15.6 60 60 S 5 7 29.83 1010 10 16 0.00 0.00
11:53 pm 23:53 Cloudy 74 23.3 60 15.6 62 62 S 8 13 29.83 1010 10 16 0.00 0.00

Powered by AerisWeather